St. Joseph, KS

11:18 AM CST on December 05, 2019 (GMT -0600)
Rosecrans Memorial

Weather History for KSTJ - October, 2019

Change the Weather History Date:

Friday, October 25, 2019

  Actual Average Record
Temperature  
Mean Temperature 43 °F 51 °F  
Max Temperature 55 °F 63 °F 87 °F (1927)
Min Temperature 31 °F 40 °F 21 °F (2013)
Degree Days  
Heating Degree Days 22 14  
Month to date heating degree days 277 247  
Since 1 July heating degree days 282 327  
Cooling Degree Days 0 0  
Month to date cooling degree days 17 18  
Year to date cooling degree days 1466 1217  
Moisture  
Dew Point 31 °F    
Average Humidity 63    
Maximum Humidity 92    
Minimum Humidity 34    
Precipitation  
Precipitation 0.00 in 0.09 in 1.18 in (1986)
Month to date precipitation 3.14 2.32  
Year to date precipitation 36.74 32.04  
Sea Level Pressure  
Sea Level Pressure 30.32 in    
Wind  
Wind Speed 2 mph (ENE)    
Max Wind Speed 7 mph    
Max Gust Speed 11 mph    
Visibility 10 miles    
Events      
T = Trace of Precipitation, MM = Missing Value Source: NWS Daily Summary

Daily Weather History Graph

Daily Weather History Graph

Search for Another Location

Airport or City:

Astronomy

Oct. 25, 2019 Rise Set
Actual Time 7:40 AM CDT 6:26 PM CDT
Civil Twilight 7:12 AM CDT 6:54 PM CDT
Nautical Twilight 6:41 AM CDT 7:25 PM CDT
Astronomical Twilight 6:09 AM CDT 7:56 PM CDT
Moon 4:24 AM CDT (10/25) 5:28 PM CDT (10/25)
Length of Visible Light 11h 41m
Length of Day
10h 46m
Waning Crescent, 9% of the Moon is Illuminated
Oct 25
Waning Crescent
Oct 27
New
Nov 4
First Quarter
Nov 12
Full
Nov 19
Last Quarter

Hourly Weather History & Observations

Time (CDT) Temp. Windchill Dew Point Humidity Pressure Visibility Wind Dir Wind Speed Gust Speed Precip Events Conditions
12:53 AM 37.9 °F - 35.1 °F 89% 30.40 in 10.0 mi Calm Calm - N/A   Clear
1:53 AM 36.0 °F 32.1 °F 33.1 °F 89% 30.39 in 10.0 mi North 4.6 mph - N/A   Clear
2:53 AM 36.0 °F 31.1 °F 33.1 °F 89% 30.39 in 10.0 mi North 5.8 mph - N/A   Clear
3:53 AM 35.1 °F - 33.1 °F 92% 30.40 in 10.0 mi Calm Calm - N/A   Clear
4:53 AM 37.0 °F - 34.0 °F 89% 30.40 in 10.0 mi Calm Calm - N/A   Clear
5:53 AM 35.1 °F - 32.0 °F 89% 30.41 in 10.0 mi Calm Calm - N/A   Clear
6:53 AM 32.0 °F 27.5 °F 30.0 °F 92% 30.41 in 10.0 mi NNW 4.6 mph - N/A   Clear
7:53 AM 32.0 °F - 30.0 °F 92% 30.41 in 9.0 mi Calm Calm - N/A   Clear
9:53 AM 42.1 °F 37.7 °F 36.0 °F 79% 30.41 in 10.0 mi NNE 6.9 mph - N/A   Clear
10:53 AM 46.9 °F - 35.1 °F 63% 30.41 in 10.0 mi North 6.9 mph - N/A   Clear
11:53 AM 50.0 °F - 32.0 °F 50% 30.38 in 10.0 mi Variable 3.5 mph - N/A   Clear
12:53 PM 51.1 °F - 28.0 °F 41% 30.35 in 10.0 mi SE 3.5 mph - N/A   Clear
1:53 PM 53.1 °F - 28.0 °F 38% 30.31 in 10.0 mi Calm Calm - N/A   Clear
2:53 PM 54.0 °F - 28.0 °F 37% 30.28 in 10.0 mi ESE 5.8 mph - N/A   Clear
3:53 PM 54.0 °F - 27.0 °F 35% 30.25 in 8.0 mi SE 4.6 mph - N/A   Clear
4:53 PM 55.0 °F - 27.0 °F 34% 30.23 in 10.0 mi ESE 3.5 mph - N/A   Clear
5:53 PM 52.0 °F - 27.0 °F 38% 30.22 in 10.0 mi ESE 3.5 mph - N/A   Clear
6:53 PM 45.0 °F - 32.0 °F 60% 30.21 in 10.0 mi Calm Calm - N/A   Clear
7:53 PM 39.0 °F - 33.1 °F 79% 30.22 in 8.0 mi Calm Calm - N/A   Clear
8:53 PM 37.0 °F - 32.0 °F 82% 30.22 in 10.0 mi Calm Calm - N/A   Clear
9:53 PM 35.1 °F - 32.0 °F 89% 30.20 in 9.0 mi Calm Calm - N/A   Clear
10:53 PM 35.1 °F - 32.0 °F 89% 30.19 in 10.0 mi Calm Calm - N/A   Clear
11:53 PM 33.1 °F - 30.0 °F 89% 30.16 in 10.0 mi Calm Calm - N/A   Clear